Cheboygan, MI

4:58 AM EST on February 11, 2016 (GMT -0500)
Cheboygan

Weather History for KSLH - October, 2012

Change the Weather History Date:

Wednesday, October 3, 2012

  Actual Average (KPLN) Record (KPLN)
Temperature  
Mean Temperature 50 °F -  
Max Temperature 61 °F 60 °F 84 °F (2005)
Min Temperature 39 °F 39 °F 21 °F (1952)
Degree Days  
Heating Degree Days 15    
Moisture  
Dew Point 51 °F    
Average Humidity 95    
Maximum Humidity 98    
Minimum Humidity 83    
Precipitation  
Precipitation 0.00 in - - ()
Sea Level Pressure  
Sea Level Pressure 30.00 in    
Wind  
Wind Speed 1 mph (ENE)    
Max Wind Speed 9 mph    
Max Gust Speed -    
Visibility 5 miles    
Events Fog , Rain    
Averages and records for this station are not official NWS values.
T = Trace of Precipitation, MM = Missing Value Source: NWS Daily Summary

Daily Weather History Graph

Daily Weather History Graph

Search for Another Location

Airport or City:

Trip Planner

Search our weather history database for the weather conditions in past years. The results will help you decide how hot, cold, wet, or windy it might be!

Date:

Astronomy

Oct. 03, 2012 Rise Set
Actual Time 7:39 AM EDT 7:13 PM EDT
Civil Twilight 7:09 AM EDT 7:43 PM EDT
Nautical Twilight 6:35 AM EDT 8:17 PM EDT
Astronomical Twilight 6:00 AM EDT 8:52 PM EDT
Moon 8:52 PM EDT (10/3) 11:14 AM EDT (10/3)
Length of Visible Light 12h 33m
Length of Day
11h 34m
Waning Gibbous, 89% of the Moon is Illuminated
Oct 3
Waning Gibbous
Oct 8
Last Quarter
Oct 15
New
Oct 21
First Quarter
Oct 29
Full

Hourly Weather History & Observations

Time (EDT) Temp. Dew Point Humidity Pressure Visibility Wind Dir Wind Speed Gust Speed Precip Events Conditions
12:15 AM 41.0 °F 39.9 °F 96% 29.98 in 3.0 mi Calm Calm - N/A   Clear
12:35 AM 40.6 °F 39.4 °F 95% 29.98 in 0.5 mi Calm Calm - N/A Fog Fog
12:55 AM 40.5 °F 39.4 °F 96% 29.98 in 5.0 mi Calm Calm - N/A   Clear
1:15 AM 40.3 °F 39.0 °F 95% 29.98 in 7.0 mi Calm Calm - N/A   Clear
1:35 AM 39.7 °F 38.3 °F 95% 29.98 in 1.0 mi Calm Calm - N/A   Overcast
1:55 AM 42.1 °F 41.2 °F 97% 29.99 in 0.2 mi Calm Calm - N/A Fog Fog
2:15 AM 43.7 °F 42.8 °F 97% 29.99 in 0.2 mi Calm Calm - N/A Fog Fog
2:35 AM 43.0 °F 42.3 °F 97% 29.99 in 0.2 mi Calm Calm - N/A Fog Fog
2:55 AM 43.7 °F 43.0 °F 97% 29.98 in 0.2 mi Calm Calm - N/A Fog Fog
3:16 AM 43.0 °F 42.1 °F 97% 29.98 in 0.5 mi Calm Calm - N/A Fog Fog
3:35 AM 42.4 °F 41.7 °F 97% 29.98 in 0.2 mi Calm Calm - N/A Fog Fog
3:55 AM 42.1 °F 41.2 °F 97% 29.98 in 0.2 mi Calm Calm - N/A Fog Fog
4:15 AM 41.9 °F 41.0 °F 97% 29.98 in 0.2 mi Calm Calm - N/A Fog Fog
4:35 AM 41.5 °F 40.6 °F 97% 29.99 in 0.2 mi Calm Calm - N/A Fog Fog
4:56 AM 41.9 °F 41.2 °F 97% 29.99 in 0.2 mi Calm Calm - N/A Fog Fog
5:15 AM 42.8 °F 41.9 °F 97% 30.00 in 0.5 mi Calm Calm - N/A Fog Fog
5:35 AM 41.7 °F 40.8 °F 97% 29.99 in 0.5 mi Calm Calm - N/A Fog Fog
5:56 AM 42.8 °F 42.1 °F 97% 29.99 in 0.2 mi Calm Calm - N/A Fog Fog
6:15 AM 43.2 °F 42.6 °F 98% 30.00 in 0.2 mi Calm Calm - N/A Fog Fog
6:55 AM 44.4 °F 43.7 °F 97% 30.00 in 0.2 mi Calm Calm - N/A Fog Fog
7:15 AM 44.6 °F 43.9 °F 97% 30.00 in 0.2 mi Calm Calm - N/A Fog Fog
7:35 AM 45.1 °F 44.4 °F 97% 30.01 in 0.2 mi Calm Calm - N/A Fog Fog
7:55 AM 45.3 °F 44.6 °F 97% 30.02 in 0.2 mi Calm Calm - N/A Fog Fog
8:15 AM 45.9 °F 45.1 °F 97% 30.02 in 0.2 mi Calm Calm - N/A Fog Fog
8:36 AM 46.9 °F 46.4 °F 98% 30.03 in 0.2 mi Calm Calm - N/A Fog Fog
8:55 AM 47.7 °F 46.9 °F 97% 30.03 in 0.2 mi Calm Calm - N/A Fog Fog
9:15 AM 50.0 °F 49.3 °F 97% 30.02 in 0.2 mi Calm Calm - N/A Fog Fog
9:35 AM 50.2 °F 49.5 °F 97% 30.02 in 0.2 mi Calm Calm - N/A Fog Fog
9:55 AM 51.4 °F 50.9 °F 98% 30.02 in 0.2 mi Calm Calm - N/A Fog Fog
10:15 AM 52.9 °F 52.2 °F 97% 30.02 in 0.2 mi Calm Calm - N/A Fog Fog
10:35 AM 54.1 °F 53.4 °F 97% 30.03 in 0.5 mi Calm Calm - N/A Fog Fog
10:55 AM 55.4 °F 54.7 °F 97% 30.03 in 5.0 mi ENE 4.6 mph - N/A   Overcast
11:16 AM 55.8 °F 55.0 °F 97% 30.03 in 7.0 mi ENE 3.5 mph - N/A   Overcast
11:35 AM 56.3 °F 55.6 °F 97% 30.03 in 10.0 mi East 3.5 mph - N/A   Overcast
11:56 AM 57.2 °F 56.3 °F 97% 30.02 in 10.0 mi NE 4.6 mph - N/A   Overcast
12:15 PM 57.7 °F 57.0 °F 97% 30.01 in 10.0 mi NE 5.8 mph - N/A   Overcast
12:35 PM 57.7 °F 57.2 °F 98% 30.01 in 10.0 mi ENE 8.1 mph - N/A   Overcast
12:55 PM 59.7 °F 59.2 °F 98% 30.01 in 10.0 mi East 5.8 mph - N/A   Overcast
1:15 PM 59.0 °F 58.1 °F 97% 30.01 in 10.0 mi NNE 5.8 mph - N/A   Overcast
1:35 PM 59.7 °F 58.6 °F 96% 30.00 in 10.0 mi ENE 6.9 mph - N/A   Overcast
1:55 PM 61.5 °F 59.4 °F 93% 29.99 in 10.0 mi ENE 8.1 mph - N/A   Overcast
2:15 PM 61.2 °F 57.0 °F 86% 29.99 in 10.0 mi NE 9.2 mph - N/A   Overcast
2:35 PM 61.3 °F 56.3 °F 83% 29.98 in 10.0 mi NE 9.2 mph - N/A   Overcast
2:55 PM 60.8 °F 56.1 °F 85% 29.99 in 10.0 mi ENE 8.1 mph - N/A   Overcast
3:15 PM 60.4 °F 55.9 °F 85% 29.99 in 10.0 mi NE 6.9 mph - N/A   Overcast
3:35 PM 59.9 °F 55.8 °F 86% 29.99 in 10.0 mi NE 8.1 mph - N/A   Overcast
3:55 PM 59.4 °F 55.8 °F 88% 29.99 in 10.0 mi ENE 6.9 mph - N/A   Overcast
4:15 PM 59.4 °F 55.9 °F 88% 29.98 in 10.0 mi ENE 6.9 mph - N/A   Overcast
4:35 PM 59.4 °F 55.8 °F 88% 29.98 in 10.0 mi ENE 8.1 mph - N/A   Overcast
4:55 PM 59.0 °F 55.6 °F 88% 29.99 in 10.0 mi ENE 5.8 mph - N/A   Overcast
5:15 PM 58.5 °F 55.6 °F 90% 29.99 in 10.0 mi NE 4.6 mph - N/A   Overcast
5:35 PM 58.3 °F 55.6 °F 91% 29.99 in 10.0 mi East 4.6 mph - N/A   Overcast
5:56 PM 57.7 °F 56.1 °F 94% 30.00 in 5.0 mi Calm Calm - N/A Rain Light Rain
6:15 PM 57.6 °F 56.3 °F 96% 29.99 in 10.0 mi Calm Calm - N/A   Overcast
6:56 PM 57.2 °F 55.9 °F 96% 29.99 in 10.0 mi ENE 3.5 mph - N/A   Overcast
7:15 PM 57.2 °F 55.9 °F 96% 29.99 in 10.0 mi Calm Calm - N/A   Overcast
7:35 PM 57.2 °F 56.3 °F 97% 30.00 in 10.0 mi Calm Calm - N/A   Overcast
7:55 PM 57.2 °F 56.3 °F 97% 30.00 in 7.0 mi Calm Calm - N/A   Overcast
8:15 PM 57.2 °F 56.3 °F 97% 30.00 in 7.0 mi Calm Calm - N/A   Overcast
8:36 PM 57.2 °F 56.3 °F 97% 30.00 in 7.0 mi Calm Calm - N/A   Overcast
8:55 PM 57.2 °F 56.3 °F 97% 30.00 in 5.0 mi Calm Calm - N/A Rain Rain
9:15 PM 57.2 °F 56.3 °F 97% 30.00 in 5.0 mi ENE 3.5 mph - N/A Rain Light Rain
9:35 PM 57.4 °F 56.7 °F 97% 30.01 in 5.0 mi Calm Calm - N/A Rain Light Rain
9:55 PM 57.4 °F 56.7 °F 97% 30.00 in 7.0 mi Calm Calm - N/A   Overcast
10:15 PM 57.4 °F 56.7 °F 97% 30.00 in 5.0 mi Calm Calm - N/A   Overcast
10:35 PM 57.2 °F 56.5 °F 97% 30.00 in 2.5 mi Calm Calm - N/A   Overcast
10:55 PM 57.2 °F 56.5 °F 97% 30.00 in 4.0 mi Calm Calm - N/A   Overcast
11:15 PM 57.2 °F 56.5 °F 97% 30.00 in 5.0 mi Calm Calm - N/A   Overcast
11:35 PM 57.4 °F 56.7 °F 97% 30.00 in 5.0 mi Calm Calm - N/A   Overcast
11:55 PM 56.8 °F 56.3 °F 98% 29.99 in 2.5 mi Calm Calm - N/A   Overcast